Location: Newark
(52.2090°N, 4.1550°W)
Time: 01:38:36
(UTC+00:00)

ISS - Visible Passes

Search period start: 23 July 2019 00:00
Search period end: 02 August 2019 00:00
Orbit: 409 x 418 km, 51.6° (Epoch: 23 July)

Date Brightness Start Highest point End Pass type
(mag) Time Alt. Az. Time Alt. Az. Time Alt. Az.
23 Jul -3.2 00:11:21 10° W 00:14:00 41° SW 00:14:00 41° SW visible
23 Jul -3.9 21:45:22 10° W 21:48:42 82° S 21:52:04 10° E visible
23 Jul -3.8 23:22:02 10° W 23:25:20 60° SSW 23:25:59 47° SSE visible
24 Jul -3.9 22:32:43 10° W 22:36:03 72° SSW 22:38:03 22° ESE visible
25 Jul -1.8 00:09:33 10° W 00:10:51 19° WSW 00:10:51 19° WSW visible
25 Jul -3.9 21:43:23 10° W 21:46:44 80° S 21:50:05 10° E visible
25 Jul -3.1 23:20:07 10° W 23:22:58 36° SW 23:22:58 36° SW visible
26 Jul -3.5 22:30:44 10° W 22:33:59 50° SSW 22:35:08 33° SE visible
27 Jul -3.7 21:41:22 10° W 21:44:41 63° SSW 21:47:18 15° ESE visible
27 Jul -1.9 23:18:22 10° W 23:20:07 19° WSW 23:20:07 19° WSW visible
28 Jul -3.8 20:52:01 10° W 20:55:21 75° S 20:58:42 10° ESE visible
28 Jul -2.8 22:28:48 10° W 22:31:47 30° SSW 22:32:20 28° S visible
29 Jul -3.1 21:39:21 10° W 21:42:32 41° SSW 21:44:34 19° SE visible
30 Jul -3.4 20:49:56 10° W 20:53:13 53° SSW 20:56:29 10° ESE visible
30 Jul -1.8 22:27:11 10° W 22:29:23 17° SW 22:29:38 16° SSW visible
31 Jul -2.2 21:37:27 10° W 21:40:12 24° SSW 21:41:56 16° S visible
01 Aug -2.6 20:47:53 10° W 20:50:56 33° SSW 20:53:57 10° SE visible
